Weather History for KIAG - December, 2012

Change the Weather History Date:

Monday, December 31, 2012

  Actual Average Record
Temperature  
Mean Temperature 30 °F -  
Max Temperature 35 °F 31 °F 53 °F (2004)
Min Temperature 26 °F 19 °F 8 °F (1996)
Degree Days  
Heating Degree Days 34    
Moisture  
Dew Point 25 °F    
Average Humidity 76    
Maximum Humidity 82    
Minimum Humidity 70    
Precipitation  
Precipitation 0.00 in - - ()
Snow  
Snow 0.00 in - - ()
Snow Depth 8.00 in    
Sea Level Pressure  
Sea Level Pressure 29.99 in    
Wind  
Wind Speed 19 mph (WSW)    
Max Wind Speed 28 mph    
Max Gust Speed 41 mph    
Visibility 8 miles    
Events Rain , Snow    
Averages and records for this station are not official NWS values.
T = Trace of Precipitation, MM = Missing Value Source: NWS Daily Summary

Daily Weather History Graph

Daily Weather History Graph

Search for Another Location

Airport or City:

Trip Planner

Search our weather history database for the weather conditions in past years. The results will help you decide how hot, cold, wet, or windy it might be!

Date:

Astronomy

Dec. 31, 2012 Rise Set
Actual Time 7:47 AM EST 4:50 PM EST
Civil Twilight 7:15 AM EST 5:23 PM EST
Nautical Twilight 6:39 AM EST 5:58 PM EST
Astronomical Twilight 6:04 AM EST 6:33 PM EST
Moon 8:25 PM EST (12/31) 9:22 AM EST (12/31)
Length of Visible Light 10h 08m
Length of Day
9h 03m
Waning Gibbous, 90% of the Moon is Illuminated
Dec 31
Waning Gibbous
Jan 4
Last Quarter
Jan 11
New
Jan 18
First Quarter
Jan 26
Full

Hourly Weather History & Observations

Time (EST) Temp. Windchill Dew Point Humidity Pressure Visibility Wind Dir Wind Speed Gust Speed Precip Events Conditions
12:34 AM 28.4 °F 15.1 °F 21.2 °F 74% 30.15 in 9.0 mi West 20.7 mph - N/A   Overcast
12:53 AM 28.0 °F 14.9 °F 21.9 °F 78% 30.20 in 9.0 mi West 19.6 mph 24.2 mph N/A   Overcast
1:53 AM 27.0 °F 15.2 °F 21.0 °F 78% 30.18 in 9.0 mi West 15.0 mph - N/A   Overcast
2:20 AM 26.6 °F 13.8 °F 21.2 °F 80% 30.13 in 8.0 mi WSW 17.3 mph 21.9 mph N/A   Overcast
2:53 AM 27.0 °F 16.7 °F 21.9 °F 81% 30.17 in 7.0 mi West 11.5 mph - N/A   Overcast
3:53 AM 28.0 °F 17.5 °F 21.9 °F 78% 30.15 in 7.0 mi WSW 12.7 mph - N/A   Overcast
4:05 AM 28.4 °F 18.0 °F 21.2 °F 74% 30.09 in 7.0 mi WSW 12.7 mph - N/A   Overcast
4:31 AM 28.4 °F 19.1 °F 23.0 °F 80% 30.08 in 7.0 mi WSW 10.4 mph - N/A   Overcast
4:53 AM 30.0 °F 17.2 °F 25.0 °F 82% 30.12 in 8.0 mi WSW 20.7 mph 29.9 mph N/A   Overcast
5:53 AM 30.0 °F 17.9 °F 25.0 °F 82% 30.11 in 8.0 mi SW 18.4 mph 24.2 mph N/A   Overcast
6:53 AM 30.0 °F 18.3 °F 25.0 °F 82% 30.09 in 8.0 mi SW 17.3 mph - N/A   Overcast
7:05 AM 30.2 °F 17.8 °F 24.8 °F 80% 30.04 in 8.0 mi SW 19.6 mph 26.5 mph N/A   Overcast
7:53 AM 30.0 °F 17.2 °F 24.1 °F 79% 30.07 in 8.0 mi SSW 20.7 mph 27.6 mph N/A   Overcast
8:09 AM 30.2 °F 18.9 °F 24.8 °F 80% 30.02 in 8.0 mi SSW 16.1 mph 24.2 mph N/A   Overcast
8:53 AM 30.0 °F 17.9 °F 24.1 °F 79% 30.04 in 8.0 mi SSW 18.4 mph - N/A   Mostly Cloudy
9:47 AM 30.2 °F 17.4 °F 24.8 °F 80% 29.97 in 10.0 mi SW 20.7 mph 27.6 mph N/A   Mostly Cloudy
9:53 AM 32.0 °F 20.5 °F 24.1 °F 73% 30.01 in 10.0 mi SSW 18.4 mph 27.6 mph N/A   Mostly Cloudy
10:44 AM 33.8 °F 21.6 °F 24.8 °F 70% 29.97 in 9.0 mi WSW 23.0 mph 32.2 mph N/A   Mostly Cloudy
10:53 AM 33.1 °F 20.1 °F 25.0 °F 72% 30.01 in 10.0 mi WSW 25.3 mph 31.1 mph N/A   Mostly Cloudy
11:53 AM 34.0 °F 22.1 °F 26.1 °F 73% 29.97 in 9.0 mi WSW 21.9 mph 34.5 mph N/A   Mostly Cloudy
12:53 PM 34.0 °F 22.7 °F 27.0 °F 75% 29.94 in 10.0 mi WSW 19.6 mph 31.1 mph N/A   Overcast
1:23 PM 35.6 °F 24.8 °F 26.6 °F 70% 29.89 in 9.0 mi WSW 19.6 mph 31.1 mph N/A   Overcast
1:53 PM 35.1 °F 22.7 °F 27.0 °F 72% 29.92 in 8.0 mi WSW 25.3 mph 33.4 mph N/A   Overcast
2:26 PM 35.6 °F 25.5 °F 26.6 °F 70% 29.86 in 8.0 mi WSW 17.3 mph 31.1 mph N/A   Overcast
2:53 PM 35.1 °F 23.3 °F 27.0 °F 72% 29.90 in 8.0 mi WSW 23.0 mph 32.2 mph N/A   Overcast
3:53 PM 34.0 °F 21.0 °F 27.0 °F 75% 29.90 in 7.0 mi WSW 26.5 mph 34.5 mph N/A   Overcast
4:10 PM 33.8 °F 20.5 °F 26.6 °F 75% 29.85 in 6.0 mi WSW 27.6 mph 41.4 mph N/A   Haze
4:53 PM 35.1 °F 22.5 °F 27.0 °F 72% 29.90 in 7.0 mi WSW 26.5 mph 34.5 mph N/A   Overcast
5:53 PM 34.0 °F 22.4 °F 27.0 °F 75% 29.90 in 8.0 mi WSW 20.7 mph 32.2 mph N/A   Overcast
6:10 PM 33.8 °F 21.9 °F 26.6 °F 75% 29.86 in 9.0 mi WSW 21.9 mph 28.8 mph N/A   Overcast
6:53 PM 34.0 °F 23.0 °F 26.1 °F 73% 29.91 in 8.0 mi West 18.4 mph 28.8 mph N/A   Overcast
7:39 PM 33.8 °F 22.2 °F 26.6 °F 75% 29.87 in 9.0 mi West 20.7 mph 28.8 mph N/A   Overcast
7:53 PM 34.0 °F 22.1 °F 26.1 °F 73% 29.91 in 8.0 mi West 21.9 mph 28.8 mph N/A   Overcast
8:53 PM 34.0 °F 22.4 °F 26.1 °F 73% 29.91 in 8.0 mi West 20.7 mph 28.8 mph N/A   Overcast
9:37 PM 33.8 °F 23.2 °F 26.6 °F 75% 29.86 in 9.0 mi West 17.3 mph 26.5 mph N/A   Overcast
9:53 PM 34.0 °F 23.0 °F 26.1 °F 73% 29.91 in 9.0 mi West 18.4 mph - N/A   Overcast
9:58 PM 33.8 °F 22.8 °F 26.6 °F 75% 29.86 in 7.0 mi West 18.4 mph - 0.00 in Rain Light Rain
10:27 PM 33.8 °F 23.2 °F 26.6 °F 75% 29.87 in 8.0 mi West 17.3 mph - 0.00 in Rain , Snow Light Rain
10:53 PM 33.1 °F 22.2 °F 26.1 °F 75% 29.92 in 8.0 mi West 17.3 mph 26.5 mph 0.00 in Snow Light Snow
11:53 PM 33.1 °F 22.6 °F 25.0 °F 72% 29.93 in 8.0 mi West 16.1 mph - 0.00 in   Overcast